サイディング・スプリング彗星

P/2012 US27 ( Siding Spring ) 2024

English version
Home page
Updated on July 10, 2024

---------------------------------------------------------------------

・ プロフィール

・ 写真集

・ 軌道要素

Epoch 2024 Oct. 17.0 TT = JDT 2460600.5
T 2024 Oct. 21.18575 TT                                 MPC
q   1.8149881            (2000.0)            P               Q
n   0.08394561     Peri.    0.86499     +0.64436297     -0.59510028
a   5.1657976      Node    49.21115     +0.69775258     +0.20051851
e   0.6486529      Incl.   39.37003     +0.31294998     +0.77823389
P  11.7
From 294 observations 2012 Oct. 17-2013 Apr. 18, mean residual 0".4.

・ 星図

・ 光度変化

        m1 = 5.7 + 5 logΔ + 35.0 log r(t - 15)

---------------------------------------------------------------------

軌道要素はM.P.E.C. 2013-J25に掲載されたものです。
星図はステラナビゲータ Ver.11 (アストロアーツ) で作成したものです。
光度グラフはComet for Windowsで作成したものです。

---------------------------------------------------------------------

Copyright(C) Seiichi Yoshida (comet@aerith.net). All rights reserved.